Weather History for Oaxaca, Mexico

Change the Weather History Date:

Sunday, October 28, 2012

  Actual Average Record
Temperature  
Mean Temperature 66 °F -  
Max Temperature 83 °F 78 °F 86 °F (2014)
Min Temperature 50 °F 50 °F 44 °F (1999)
Cooling Degree Days 2    
Growing Degree Days 16 (Base 50)    
Moisture  
Dew Point 53 °F    
Average Humidity 58    
Maximum Humidity 94    
Minimum Humidity 28    
Precipitation  
Precipitation 0.00 in - - ()
Sea Level Pressure  
Sea Level Pressure 30.04 in    
Wind  
Wind Speed 5 mph ()    
Max Wind Speed 21 mph    
Max Gust Speed -    
Visibility 9.3 miles    
Events      
Averages and records for this station are not official NWS values.
T = Trace of Precipitation, MM = Missing Value Source: Averaged Metar Reports

Daily Weather History Graph

Daily Weather History Graph

Search for Another Location

Airport:

Trip Planner

Search our weather history database for the weather conditions in past years. The results will help you decide how hot, cold, wet, or windy it might be!

Date:

Astronomy

Oct. 28, 2012 Rise Set
Actual Time 6:23 AM CST 5:57 PM CST
Civil Twilight 6:01 AM CST 6:19 PM CST
Nautical Twilight 5:35 AM CST 6:45 PM CST
Astronomical Twilight 5:10 AM CST 7:10 PM CST
Moon 5:15 PM CST (10/28) 5:21 AM CST (10/28)
Length of Visible Light 12h 18m
Length of Day
11h 33m
Waxing Gibbous, 99% of the Moon is Illuminated
Oct 28
Waxing Gibbous
Oct 29
Full
Nov 6
Last Quarter
Nov 13
New
Nov 20
First Quarter

Hourly Weather History & Observations

Time (CST) Temp. Dew Point Humidity Pressure Visibility Wind Dir Wind Speed Gust Speed Precip Events Conditions
12:55 AM 60 °F 51 °F 64% 29.93 in 6 mi NE 2.2 mph - -   Clear
2:50 AM 57 °F 51 °F 72% 29.95 in 6 mi NNE 2.2 mph - -   Partly Cloudy
5:50 AM 55 °F 50 °F 78% 30.01 in 6 mi East 2.2 mph - -   Partly Cloudy
5:59 AM 50.0 °F 48.2 °F 94% 30.21 in 6.0 mi Calm Calm - N/A   Scattered Clouds
6:44 AM 51.8 °F 48.2 °F 88% 29.97 in 7.0 mi ENE 2.3 mph - N/A   Overcast
7:43 AM 57.2 °F 51.8 °F 82% 30.25 in 7.0 mi Calm Calm - N/A   Overcast
8:30 AM 64 °F 53 °F 58% 30.09 in 7 mi SW 2.2 mph - -   Partly Cloudy
8:56 AM 62.6 °F 53.6 °F 72% 30.27 in 7.0 mi South 2.3 mph - N/A   Overcast
9:48 AM 69.8 °F 53.6 °F 56% 29.94 in 8.0 mi South 2.3 mph - N/A   Overcast
10:41 AM 71.6 °F 53.6 °F 53% 30.24 in 8.0 mi NNW 5.8 mph - N/A   Mostly Cloudy
11:30 AM 81 °F 55 °F 30% 30.01 in 7 mi East 2.2 mph - -   Partly Cloudy
11:40 AM 75.2 °F 53.6 °F 47% 30.21 in 8.0 mi ENE 4.6 mph - N/A   Mostly Cloudy
12:40 PM 77.0 °F 53.6 °F 44% 29.86 in 10.0 mi NNW 9.2 mph - N/A   Mostly Cloudy
1:44 PM 78.8 °F 53.6 °F 42% 30.13 in 15.0 mi NW 9.2 mph - N/A   Mostly Cloudy
2:40 PM 83 °F 55 °F 28% 29.85 in 12 mi North 11.2 mph - -   Partly Cloudy
2:43 PM 78.8 °F 55.4 °F 44% 29.79 in 15.0 mi NNW 20.7 mph - N/A   Mostly Cloudy
3:00 PM 83 °F 55 °F 28% 29.85 in 12 mi North 11.2 mph - -   Partly Cloudy
3:45 PM 77.0 °F 53.6 °F 44% 30.11 in 15.0 mi NW 19.6 mph - N/A   Mostly Cloudy
4:41 PM 75.2 °F 53.6 °F 47% 30.13 in 15.0 mi NNE 19.6 mph - N/A   Mostly Cloudy
5:40 PM 73 °F 55 °F 42% 29.83 in 11 mi NE 4.5 mph - -   Partly Cloudy
5:43 PM 71.6 °F 55.4 °F 57% 29.88 in 12.0 mi NNE 9.2 mph - N/A   Mostly Cloudy
6:43 PM 68.0 °F 55.4 °F 64% 30.19 in 8.0 mi NW 4.6 mph - N/A   Mostly Cloudy
7:42 PM 66.2 °F 53.6 °F 64% 30.21 in 8.0 mi NW 8.1 mph - N/A   Mostly Cloudy
8:45 PM 66 °F 54 °F 57% 29.89 in 9 mi NW 2.2 mph - -  
8:45 PM 64.4 °F 55.4 °F 73% 29.92 in 8.0 mi NW 9.2 mph - N/A   Mostly Cloudy
9:42 PM 64.4 °F 53.6 °F 68% 30.26 in 8.0 mi North 5.8 mph - N/A   Mostly Cloudy